Weather in Velikovo

Russia / Vladimir Oblast     56°09′29″N   42°48′40″E
temp.,
°C
wind,
m/s
gust,
m/s
humid.,
%
clouds,
%
prec.,
mm/h
press.,
hPa
HPBL,
m
17 may, mon
mon1700:00+14wnw11835 0.0 101413
03:00+13nne118648 0.0 101511
06:00+16ene238014 0.0 101698
09:00+22e246410 0.0 1016517
12:00+26ese344926 0.0 10161158
15:00+27ese445258 0.0 10151250
18:00+25e366679 0.0 1014378
21:00+20ese3108831 0.1 1015203
18 may, tue
tue1800:00+17ese3493100 0.0 101565
03:00+16ese2284100 0.0 101537
06:00+18e387899 0.0 1015222
09:00+22ese5760100 0.0 1015384
12:00+26se584895 0.0 10151072
15:00+28ese68435 0.0 10141658
18:00+25ese5125545 0.0 1013687
21:00+20ese414745 0.0 1014340
19 may, wed
wed1900:00+19ese415713 0.0 1013361
03:00+17ese414831 0.0 1014337
06:00+18ese5148082 0.0 1014404
09:00+23ese611591 0.0 1013566
12:00+27ese710490 0.0 1013985
15:00+27ese710520 0.0 10131318
18:00+24ese612620 0.0 10131017
21:00+20ese514740 0.0 1013476
20 may, thu
thu2000:00+17ese515720 0.0 1012426
03:00+16ese413780 0.0 1012355
06:00+17ese514780 0.0 1012483
09:00+21se710640 0.0 1011921
12:00+24se8125681 0.0 10101653
15:00+23se71265100 0.9 10091646
18:00+20se7147598 2.1 10091367
21:00+14sse389599 2.8 1009269
21 may, fri
fri2100:00+13se399774 0.0 1009291
03:00+12se3998100 0.0 1009317
06:00+13sse499356 0.0 1009410
09:00+17ssw576511 0.0 1010806
12:00+19s71056100 0.1 10091720
15:00+14ssw61286100 1.1 1010816
18:00+16ssw6118087 0.3 10091191
21:00+12ssw4119078 1.4 1010571